TimeCST,TemperatureF,Dew PointF,Humidity,Sea Level PressureIn,VisibilityMPH,Wind Direction,Wind SpeedMPH,Gust SpeedMPH,PrecipitationIn,Events,Conditions,WindDirDegrees,DateUTC
12:13 AM,33.8,26.6,75,29.96,10.0,NW,3.5,-,N/A,,Clear,310,2012-12-07 06:13:00
12:33 AM,33.8,26.6,75,29.97,10.0,NW,6.9,-,N/A,,Clear,320,2012-12-07 06:33:00
12:53 AM,33.8,26.6,75,29.97,10.0,NW,4.6,-,N/A,,Clear,310,2012-12-07 06:53:00
1:13 AM,33.8,26.6,75,29.97,10.0,NW,8.1,-,N/A,,Clear,320,2012-12-07 07:13:00
1:33 AM,33.8,26.6,75,29.98,10.0,NW,6.9,-,N/A,,Scattered Clouds,320,2012-12-07 07:33:00
1:53 AM,32.0,26.6,80,29.99,10.0,NW,9.2,-,N/A,,Clear,320,2012-12-07 07:53:00
2:13 AM,32.0,24.8,75,30.00,10.0,NNW,10.4,-,N/A,,Scattered Clouds,330,2012-12-07 08:13:00
2:33 AM,32.0,24.8,75,30.00,10.0,NNW,10.4,-,N/A,,Scattered Clouds,330,2012-12-07 08:33:00
2:53 AM,32.0,24.8,75,30.01,10.0,NNW,12.7,16.1,N/A,,Scattered Clouds,330,2012-12-07 08:53:00
3:13 AM,32.0,24.8,75,30.01,10.0,NNW,10.4,-,N/A,,Clear,330,2012-12-07 09:13:00
3:33 AM,32.0,26.6,80,30.02,10.0,NNW,8.1,-,N/A,,Clear,330,2012-12-07 09:33:00
3:53 AM,32.0,26.6,80,30.02,10.0,NW,9.2,-,N/A,,Clear,320,2012-12-07 09:53:00
4:13 AM,32.0,23.0,69,30.01,10.0,NNW,5.8,-,N/A,,Clear,330,2012-12-07 10:13:00
4:33 AM,30.2,23.0,75,30.01,10.0,NW,6.9,-,N/A,,Clear,320,2012-12-07 10:33:00
4:53 AM,30.2,23.0,75,30.01,10.0,NNW,8.1,-,N/A,,Clear,330,2012-12-07 10:53:00
5:13 AM,30.2,23.0,75,30.02,10.0,NNW,6.9,-,N/A,,Clear,330,2012-12-07 11:13:00
5:33 AM,30.2,23.0,75,30.02,10.0,NW,6.9,-,N/A,,Clear,320,2012-12-07 11:33:00
5:53 AM,30.2,21.2,69,30.02,10.0,NNW,10.4,-,N/A,,Clear,330,2012-12-07 11:53:00
6:13 AM,28.4,21.2,74,30.02,10.0,NNW,5.8,-,N/A,,Clear,330,2012-12-07 12:13:00
6:33 AM,28.4,23.0,80,30.02,10.0,NNW,5.8,-,N/A,,Clear,330,2012-12-07 12:33:00
6:53 AM,28.4,23.0,80,30.02,10.0,NNW,5.8,-,N/A,,Clear,330,2012-12-07 12:53:00
7:13 AM,28.4,21.2,74,30.02,10.0,NNW,6.9,-,N/A,,Clear,330,2012-12-07 13:13:00
7:33 AM,28.4,21.2,74,30.02,10.0,NNW,6.9,-,N/A,,Clear,330,2012-12-07 13:33:00
7:53 AM,28.4,21.2,74,30.02,10.0,NNW,4.6,-,N/A,,Clear,330,2012-12-07 13:53:00
8:13 AM,28.4,21.2,74,30.02,10.0,NNW,3.5,-,N/A,,Clear,330,2012-12-07 14:13:00
8:33 AM,28.4,21.2,74,30.03,10.0,NNW,3.5,-,N/A,,Clear,330,2012-12-07 14:33:00
8:53 AM,30.2,21.2,69,30.03,10.0,NNW,4.6,-,N/A,,Clear,330,2012-12-07 14:53:00
9:13 AM,30.2,21.2,69,30.03,10.0,NNW,4.6,-,N/A,,Clear,330,2012-12-07 15:13:00
9:33 AM,30.2,21.2,69,30.03,10.0,North,3.5,-,N/A,,Clear,360,2012-12-07 15:33:00
9:53 AM,30.2,21.2,69,30.04,10.0,Calm,Calm,-,N/A,,Scattered Clouds,0,2012-12-07 15:53:00
10:13 AM,32.0,23.0,69,30.03,10.0,Calm,Calm,-,N/A,,Scattered Clouds,0,2012-12-07 16:13:00
10:33 AM,30.2,21.2,69,30.03,10.0,Calm,Calm,-,N/A,,Scattered Clouds,0,2012-12-07 16:33:00
10:53 AM,32.0,21.2,64,30.02,10.0,Calm,Calm,-,N/A,,Clear,0,2012-12-07 16:53:00
11:13 AM,32.0,23.0,69,30.01,10.0,NNW,3.5,-,N/A,,Mostly Cloudy,330,2012-12-07 17:13:00
11:33 AM,32.0,23.0,69,30.01,10.0,NW,5.8,-,N/A,,Scattered Clouds,320,2012-12-07 17:33:00
11:53 AM,32.0,23.0,69,30.00,10.0,NW,8.1,-,N/A,,Scattered Clouds,320,2012-12-07 17:53:00
12:13 PM,32.0,23.0,69,29.99,10.0,NNW,5.8,-,N/A,,Mostly Cloudy,330,2012-12-07 18:13:00
12:33 PM,32.0,23.0,69,29.99,10.0,NNW,4.6,-,N/A,,Overcast,330,2012-12-07 18:33:00
12:53 PM,32.0,23.0,69,29.99,10.0,NW,6.9,-,N/A,,Scattered Clouds,320,2012-12-07 18:53:00
1:13 PM,32.0,23.0,69,29.98,10.0,NW,6.9,-,N/A,,Scattered Clouds,320,2012-12-07 19:13:00
1:32 PM,32.0,23.0,69,29.99,10.0,NNW,5.8,-,N/A,,Mostly Cloudy,330,2012-12-07 19:32:00
1:53 PM,32.0,21.2,64,29.98,10.0,North,4.6,-,N/A,,Overcast,350,2012-12-07 19:53:00
2:13 PM,32.0,21.2,64,29.98,10.0,NNW,5.8,-,N/A,,Overcast,330,2012-12-07 20:13:00
2:33 PM,32.0,21.2,64,29.99,10.0,NNW,5.8,-,N/A,,Overcast,330,2012-12-07 20:33:00
3:13 PM,32.0,23.0,69,30.00,10.0,NW,6.9,-,N/A,,Mostly Cloudy,310,2012-12-07 21:13:00
3:33 PM,32.0,23.0,69,30.00,10.0,NNW,8.1,-,N/A,,Scattered Clouds,330,2012-12-07 21:33:00
3:53 PM,32.0,23.0,69,30.00,10.0,NNW,9.2,-,N/A,,Clear,340,2012-12-07 21:53:00
4:13 PM,32.0,21.2,64,30.01,10.0,North,4.6,-,N/A,,Clear,350,2012-12-07 22:13:00
4:33 PM,32.0,23.0,69,30.01,10.0,NNW,6.9,-,N/A,,Clear,330,2012-12-07 22:33:00
4:53 PM,32.0,23.0,69,30.01,10.0,North,5.8,-,N/A,,Scattered Clouds,360,2012-12-07 22:53:00
5:13 PM,32.0,23.0,69,30.01,10.0,NNW,3.5,-,N/A,,Scattered Clouds,340,2012-12-07 23:13:00
5:33 PM,32.0,23.0,69,30.01,10.0,North,3.5,-,N/A,,Scattered Clouds,10,2012-12-07 23:33:00
5:53 PM,32.0,21.2,64,30.01,10.0,Calm,Calm,-,N/A,,Scattered Clouds,0,2012-12-07 23:53:00
6:13 PM,32.0,21.2,64,30.01,10.0,Calm,Calm,-,N/A,,Mostly Cloudy,0,2012-12-08 00:13:00
6:33 PM,32.0,21.2,64,30.01,10.0,ENE,3.5,-,N/A,,Mostly Cloudy,60,2012-12-08 00:33:00
7:13 PM,32.0,21.2,64,30.01,10.0,NE,3.5,-,N/A,,Scattered Clouds,40,2012-12-08 01:13:00
7:33 PM,32.0,23.0,69,30.01,10.0,NE,3.5,-,N/A,,Clear,40,2012-12-08 01:33:00
7:52 PM,32.0,23.0,69,30.01,10.0,NNE,3.5,-,N/A,,Scattered Clouds,20,2012-12-08 01:52:00
8:33 PM,32.0,23.0,69,30.02,10.0,NE,6.9,-,N/A,,Clear,40,2012-12-08 02:33:00
8:52 PM,30.2,23.0,75,30.01,10.0,North,3.5,-,N/A,,Scattered Clouds,360,2012-12-08 02:52:00
9:13 PM,30.2,23.0,75,30.01,10.0,NNE,4.6,-,N/A,,Scattered Clouds,20,2012-12-08 03:13:00
9:33 PM,30.2,23.0,75,30.02,10.0,Calm,Calm,-,N/A,,Mostly Cloudy,0,2012-12-08 03:33:00
9:52 PM,30.2,23.0,75,30.02,10.0,ENE,3.5,-,N/A,,Overcast,60,2012-12-08 03:52:00
10:13 PM,30.2,24.8,80,30.02,10.0,ENE,4.6,-,N/A,,Overcast,60,2012-12-08 04:13:00
10:33 PM,30.2,24.8,80,30.02,10.0,ENE,4.6,-,N/A,,Overcast,60,2012-12-08 04:33:00
10:52 PM,30.2,24.8,80,30.01,10.0,ENE,4.6,-,N/A,,Overcast,70,2012-12-08 04:52:00
11:13 PM,30.2,23.0,75,30.02,10.0,NE,3.5,-,N/A,,Mostly Cloudy,50,2012-12-08 05:13:00
11:33 PM,30.2,23.0,75,30.03,10.0,NE,5.8,-,N/A,,Mostly Cloudy,40,2012-12-08 05:33:00
11:53 PM,28.4,23.0,80,30.02,10.0,ENE,6.9,-,N/A,,Overcast,60,2012-12-08 05:53:00